sat.trackr.live / text

‹ back to catalog

STARLINK-1573

NORAD 46061 · 2020-055AL

PAYLOAD ACTIVE UNKNOWN

§ Identity

Operator
Country
US
Launch date
2020-08-07
Launch site
AFETR
Launch vehicle
Mass (kg)
RCS (m²)

Purposes: comms

External: N2YO · Heavens-Above · Gunter

§ Orbital elements

Epoch: 2026-05-25T04:54:28.850976Z

Period
94.01 min
Inclination
53.1593°
Eccentricity
0.0001021
Mean motion
15.31704108 rev/d
Perigee alt
470.0 km
Apogee alt
471.4 km
Semi-major
6,848.9 km
B*
4.6869e-6
RAAN
118.0099°
Arg perigee
81.5116°
Mean anomaly
278.6001°
Rev number
32,079

§ Raw data

STARLINK-15731 46061U 20055AL  26145.20450059 -.00000220  00000+0  46869-5 0  99942 46061  53.1593 118.0099 0001021  81.5116 278.6001 15.31704108320794

JSON: /api/v1/satellites/46061 · /tle

For live sub-satellite position, see the globe view (requires WebGL).

§ Visibility from observer

Set your observer location to see the next 7 days of passes ≥ 10°. The values pass through the URL so the page stays shareable.

No JS? Fill the form by hand. The geolocation button needs JavaScript.